Date String (YYYY-MM-DD hh:mm:ss) UTC,Instrument flags,Ambient pressure (hPa),Sample flow (lpm),Bypass flow (lpm),Sample temperature (°C),Ambient temperature (°C),ASC tube jacket temperature (°C),LED temperature (°C),Box temperature (°C),Sample RH (%),Span deviation,Mass concentration (μg/m³),Mass concentration (μg/m³),Mass concentration (μg/m³)
DateTimeUTC,F1_M11,P_M11,Q1_M11,Q2_M11,T1_M11,T2_M11,T3_M11,T4_M11,T5_M11,U1_M11,ZSPAN_M11,X0_M11,X2_M11,X1_M11
2022-04-18 05:00:00,,0831.3,4.99,0.00,26.5,25.7,00.0,35.4,28.3,12.1,0000.0,0009.23,0003.77,0001.96
2022-04-18 05:01:00,,0831.3,5.01,0.00,26.5,25.7,00.0,35.4,28.3,12.1,0000.0,0009.20,0003.76,0001.96
2022-04-18 05:02:00,,0831.3,4.99,0.00,26.5,25.7,00.0,35.4,28.3,12.2,0000.0,0009.39,0003.71,0001.92
2022-04-18 05:03:00,,0831.4,5.01,0.00,26.5,25.7,00.0,35.4,28.3,12.1,0000.0,0009.71,0003.71,0001.91
2022-04-18 05:04:00,,0831.4,5.01,0.00,26.5,25.7,00.0,35.4,28.3,12.1,0000.0,0009.78,0003.70,0001.88
2022-04-18 05:05:00,,0831.4,5.01,0.00,26.5,25.6,00.0,35.4,28.3,12.1,0000.0,0009.96,0003.63,0001.87
2022-04-18 05:06:00,,0831.5,5.00,0.00,26.5,25.6,00.0,35.4,28.3,12.2,0000.0,0010.05,0003.57,0001.85
2022-04-18 05:07:00,,0831.6,5.00,0.00,26.5,25.6,00.0,35.4,28.3,12.2,0000.0,0009.80,0003.59,0001.87
2022-04-18 05:08:00,,0831.6,5.00,0.00,26.5,25.7,00.0,35.4,28.3,12.2,0000.0,0009.77,0003.60,0001.89
2022-04-18 05:09:00,,0831.6,5.00,0.00,26.5,25.7,00.0,35.4,28.3,12.2,0000.0,0009.99,0003.60,0001.88
2022-04-18 05:10:00,,0831.6,4.99,0.00,26.5,25.7,00.0,35.4,28.3,12.2,0000.0,0010.21,0003.55,0001.88
2022-04-18 05:11:00,,0831.7,5.00,0.00,26.5,25.7,00.0,35.4,28.3,12.2,0000.0,0010.04,0003.52,0001.87
2022-04-18 05:12:00,,0831.7,5.00,0.00,26.5,25.7,00.0,35.4,28.3,12.1,0000.0,0009.96,0003.52,0001.86
2022-04-18 05:13:00,,0831.7,5.00,0.00,26.5,25.7,00.0,35.4,28.3,12.2,0000.0,0010.12,0003.53,0001.87
2022-04-18 05:14:00,,0831.8,5.01,0.00,26.5,25.7,00.0,35.4,28.3,12.2,0000.0,0009.78,0003.56,0001.88
2022-04-18 05:15:00,,0832.0,5.01,0.00,26.5,25.7,00.0,35.4,28.4,12.2,0000.0,0009.70,0003.54,0001.88
2022-04-18 05:16:00,,0832.1,5.01,0.00,26.6,25.7,00.0,35.4,28.4,12.2,0000.0,0009.51,0003.56,0001.88
2022-04-18 05:17:00,,0832.1,5.00,0.00,26.6,25.7,00.0,35.4,28.4,12.2,0000.0,0008.96,0003.57,0001.87
2022-04-18 05:18:00,,0832.1,5.00,0.00,26.6,25.7,00.0,35.4,28.3,12.2,0000.0,0009.00,0003.58,0001.86
2022-04-18 05:19:00,,0832.0,4.99,0.00,26.6,25.7,00.0,35.4,28.4,12.2,0000.0,0009.63,0003.58,0001.83
2022-04-18 05:20:00,,0832.1,5.00,0.00,26.6,25.7,00.0,35.4,28.4,12.2,0000.0,0009.66,0003.54,0001.84
2022-04-18 05:21:00,,0832.1,5.00,0.00,26.6,25.7,00.0,35.4,28.4,12.3,0000.0,0009.29,0003.54,0001.85
2022-04-18 05:22:00,,0832.1,5.00,0.00,26.6,25.7,00.0,35.4,28.4,12.2,0000.0,0009.37,0003.58,0001.87
2022-04-18 05:23:00,,0832.2,4.99,0.00,26.6,25.7,00.0,35.4,28.3,12.2,0000.0,0009.26,0003.54,0001.87
2022-04-18 05:24:00,,0832.2,5.00,0.00,26.6,25.7,00.0,35.4,28.4,12.2,0000.0,0009.15,0003.59,0001.88
2022-04-18 05:25:00,,0832.4,5.01,0.00,26.6,25.7,00.0,35.5,28.4,12.1,0000.0,0009.11,0003.58,0001.88
2022-04-18 05:26:00,,0832.3,5.00,0.00,26.6,25.7,00.0,35.4,28.4,12.2,0000.0,0009.16,0003.59,0001.89
2022-04-18 05:27:00,,0832.4,5.00,0.00,26.5,25.7,00.0,35.4,28.3,12.2,0000.0,0009.36,0003.64,0001.90
2022-04-18 05:28:00,,0832.5,5.00,0.00,26.5,25.6,00.0,35.4,28.3,12.2,0000.0,0010.83,0003.69,0001.93
2022-04-18 05:29:00,,0832.5,5.00,0.00,26.5,25.6,00.0,35.4,28.3,12.3,0000.0,0011.16,0003.70,0001.95
2022-04-18 05:30:00,,0832.6,5.00,0.00,26.5,25.6,00.0,35.4,28.3,12.2,0000.0,0010.65,0003.72,0001.98
2022-04-18 05:31:00,,0832.7,4.99,0.00,26.5,25.6,00.0,35.4,28.2,11.8,0000.0,0010.71,0003.76,0002.00
2022-04-18 05:32:00,,0832.7,5.01,0.00,26.4,25.5,00.0,35.4,28.2,11.5,0000.0,0011.10,0003.83,0002.00
2022-04-18 05:33:00,,0832.8,5.00,0.00,26.4,25.5,00.0,35.4,28.1,11.4,0000.0,0011.97,0003.85,0001.99
2022-04-18 05:34:00,,0833.0,4.99,0.00,26.3,25.4,00.0,35.4,28.0,11.0,0000.0,0014.72,0003.90,0001.98
2022-04-18 05:35:00,,0833.1,4.98,0.00,26.3,25.3,00.0,35.4,28.0,10.7,0000.0,0016.28,0003.91,0001.96
2022-04-18 05:36:00,,0833.2,5.00,0.00,26.2,25.2,00.0,35.3,27.9,10.6,0000.0,0016.40,0003.91,0001.94
2022-04-18 05:37:00,,0833.3,5.01,0.00,26.2,25.2,00.0,35.3,27.9,10.6,0000.0,0016.93,0003.89,0001.90
2022-04-18 05:38:00,,0833.3,5.01,0.00,26.2,25.1,00.0,35.3,27.9,10.5,0000.0,0017.03,0003.83,0001.86
2022-04-18 05:39:00,,0833.3,4.99,0.00,26.2,25.1,00.0,35.3,27.8,10.5,0000.0,0016.26,0003.82,0001.82
2022-04-18 05:40:00,,0833.3,5.00,0.00,26.1,25.1,00.0,35.2,27.8,10.5,0000.0,0016.92,0003.80,0001.79
2022-04-18 05:41:00,,0833.4,5.00,0.00,26.1,25.1,00.0,35.2,27.8,10.4,0000.0,0018.45,0003.76,0001.74
2022-04-18 05:42:00,,0833.4,4.99,0.00,26.1,25.1,00.0,35.2,27.8,10.4,0000.0,0018.89,0003.70,0001.69
2022-04-18 05:43:00,,0833.5,5.01,0.00,26.0,25.0,00.0,35.2,27.7,10.3,0000.0,0018.60,0003.63,0001.65
2022-04-18 05:44:00,,0833.5,5.01,0.00,26.0,25.0,00.0,35.1,27.6,10.1,0000.0,0019.55,0003.58,0001.62
2022-04-18 05:45:00,,0833.6,5.00,0.00,25.9,24.9,00.0,35.1,27.6,09.7,0000.0,0017.96,0003.53,0001.59
2022-04-18 05:46:00,,0833.7,5.00,0.00,25.9,24.9,00.0,35.1,27.6,09.6,0000.0,0016.83,0003.48,0001.57
2022-04-18 05:47:00,,0833.8,5.00,0.00,25.8,24.8,00.0,35.0,27.5,09.4,0000.0,0017.30,0003.44,0001.55
2022-04-18 05:48:00,,0834.0,4.99,0.00,25.8,24.8,00.0,35.0,27.5,09.3,0000.0,0017.39,0003.42,0001.54
2022-04-18 05:49:00,,0834.0,4.99,0.00,25.8,24.7,00.0,35.0,27.4,09.2,0000.0,0018.34,0003.46,0001.53
2022-04-18 05:50:00,,0834.1,5.01,0.00,25.7,24.7,00.0,34.9,27.4,09.3,0000.0,0019.11,0003.49,0001.53
2022-04-18 05:51:00,,0834.1,5.01,0.00,25.7,24.7,00.0,34.9,27.4,09.3,0000.0,0018.50,0003.48,0001.51
2022-04-18 05:52:00,,0834.0,5.00,0.00,25.7,24.7,00.0,34.9,27.4,09.3,0000.0,0016.76,0003.52,0001.50
2022-04-18 05:53:00,,0834.1,5.00,0.00,25.7,24.7,00.0,34.9,27.4,09.3,0000.0,0016.59,0003.56,0001.47
2022-04-18 05:54:00,,0834.1,4.99,0.00,25.6,24.7,00.0,34.8,27.4,09.3,0000.0,0016.37,0003.58,0001.46
2022-04-18 05:55:00,,0834.1,4.99,0.00,25.6,24.6,00.0,34.8,27.3,09.2,0000.0,0016.12,0003.57,0001.44
2022-04-18 05:56:00,,0834.3,5.01,0.00,25.6,24.6,00.0,34.8,27.3,09.2,0000.0,0016.87,0003.65,0001.44
2022-04-18 05:57:00,,0834.2,5.01,0.00,25.6,24.6,00.0,34.8,27.3,09.2,0000.0,0017.47,0003.67,0001.43
2022-04-18 05:58:00,,0834.2,5.01,0.00,25.5,24.6,00.0,34.7,27.3,09.3,0000.0,0017.22,0003.72,0001.42
2022-04-18 05:59:00,,0834.3,5.00,0.00,25.5,24.6,00.0,34.7,27.2,09.2,0000.0,0017.03,0003.74,0001.40
